ONEWEB-0037, 45440

Orbit data source: Space-Track

ONEWEB-0037, 45440 is a payload satellite owned by One Web (UK) in LEO that was launched on Sat, 21 Mar 2020 UTC via a SOYUZ-2-1B launch vehicle from the Tyuratam Missile And Space Complex (TTMTR). Payload-class satellites include a variety of spacecraft equipped with specific instruments for various scientific and technological missions. These include communications satellites like Starlink; space stations such as the ISS; scientific satellites like the Hubble; Earth observation satellites from companies like Planet Labs, Umbra, and HawkEye 360; GPS; miniature CubeSats for education and research; and military/defense satellites.

Loading next visibility...
Identifier
45440, 2020-020S
Orbit
LEO
Country
Flag of UKUK
Related business
Manufacturer
One Web
Mission
Operational Commercial Communications
Bus & Motor
ARROW, Unknown motor
Mass
148 kg wet, ~140 kg dry
Launch date (UTC)
2020-03-21 (6 years ago)
Launch vehicle
SOYUZ-2-1B
Launch site
Tyuratam Missile And Space Complex (TTMTR)
Object type
Payload
Rocket body
Debris
Shape & HBR
Trap Box + 2 Pan, 6.7 m
Radar Cross Section
3.464 m², Large (>1 m²)

Expand to show TLE details & history
Last TLE update: 19 hours ago

TLE from 19 hours ago
0 ONEWEB-0037
1 45440U 20020S   25286.67504775 -.00000328  00000-0 -96132-3 0  9994
2 45440  87.8832  70.1071 0001672  91.7767 268.3553 13.11418382270388
Epoch: 2025-10-13T16:12Z
TLE epoch observation values (Epoch: 2025-10-13T16:12:04.125Z)
Latitude
0.00003°
Longitude
164.61549°
Altitude
1,220.603 km
Speed
7.244 km/s
True Right ascension
04h 40m 25s
True Declination
0° 00' 00"
Sunlit
Object was in full shadow at epoch
Visualization orbit readout
Latitude
Unknown
Longitude
Unknown
Altitude
Unknown
Speed
Unknown
Apparent Right ascension
Unknown
Apparent Declination
Unknown
Sunlit
N/A
Visualization observer readout
Local Sidereal Time
06:13:26
Azimuth
Unknown
Elevation
Unknown
Doppler factor
Unknown
Orbital elements
Apogee altitude
1,216.065 km
Perigee altitude
1,213.526 km
Semi-major axis
7,592.932 km
Eccentricity
0.00017
Inclination
87.8832°
RAAN
70.1071°
Arg. of periapsis
91.7767°
True anomaly
268.33615°
Mean anomaly
268.3553°
Eccentric anomaly
268.34572°
Mean motion
3.28042 °/min
Orbital period
109.74 mins
BSTAR
-0.00096132
Loading maneuver chart data...
Computing Atmospheric mass density...
Loading historical data...
Loading historical data...
Loading historical data...
Loading historical data...
Loading historical data...
Loading historical data...
Loading historical data...

Documentation

Showing up to 5 results
|